ZUFUS FAPE-FAOR

Flight info

Callsign ZUFUS
Flight time 3h 55m
Altitude 10000
Route ITKIT DCT XARVI DCT IMROG DCT OKPUN DCT IXAKU DCT EVEMU DCT XORER DCT IMGEV DCT OKTEK DCT AVILO AVILO1B
Aircraft DA40/L-SBDGRY/S

Departure

Time 2026-04-30 07:32
Airport Chief Dawid Stuurman International Airport (FAPE)

Arrival

Time 2026-04-30 11:28
Airport O.R. Tambo International Airport (FAOR)
Time Latitude Longitude Altitude Speed Heading
2026-04-30 07:18 -33.98581 25.60899 206 ft 0 kts 332°
2026-04-30 07:22 -33.98587 25.60902 205 ft 2 kts 355°
2026-04-30 07:22 -33.98595 25.60895 208 ft 0 kts 53°
2026-04-30 07:27 -33.98595 25.60900 206 ft 2 kts 94°
2026-04-30 07:28 -33.98619 25.60894 205 ft 7 kts 239°
2026-04-30 07:28 -33.98672 25.60908 207 ft 13 kts 110°
2026-04-30 07:28 -33.98617 25.61040 206 ft 23 kts 56°
2026-04-30 07:28 -33.98539 25.61190 209 ft 20 kts 57°
2026-04-30 07:29 -33.98472 25.61320 211 ft 19 kts 58°
2026-04-30 07:29 -33.98410 25.61479 213 ft 23 kts 60°
2026-04-30 07:29 -33.98315 25.61664 209 ft 29 kts 57°
2026-04-30 07:29 -33.98228 25.61837 211 ft 15 kts 76°
2026-04-30 07:30 -33.98378 25.61949 206 ft 12 kts 238°
2026-04-30 07:30 -33.98400 25.61907 207 ft 0 kts 237°
2026-04-30 07:31 -33.98436 25.61836 205 ft 34 kts 237°
2026-04-30 07:31 -33.98649 25.61431 219 ft 76 kts 237°
2026-04-30 07:32 -33.98933 25.60878 396 ft 80 kts 240°
2026-04-30 07:32 -33.99238 25.60284 591 ft 84 kts 236°
2026-04-30 07:32 -33.99548 25.59697 862 ft 81 kts 240°
2026-04-30 07:32 -33.99877 25.59105 1075 ft 85 kts 235°
2026-04-30 07:33 -34.00225 25.58521 1300 ft 85 kts 236°
2026-04-30 07:33 -34.00563 25.57954 1532 ft 84 kts 238°
2026-04-30 07:33 -34.00902 25.57358 1747 ft 85 kts 246°
2026-04-30 07:33 -34.00991 25.56911 1878 ft 80 kts 274°
2026-04-30 07:34 -34.00808 25.56340 2102 ft 71 kts 315°
2026-04-30 07:34 -34.00282 25.55863 2358 ft 76 kts 323°
2026-04-30 07:34 -33.99975 25.55596 2461 ft 84 kts 327°
2026-04-30 07:34 -33.99495 25.55188 2660 ft 88 kts 327°
2026-04-30 07:35 -33.98951 25.54799 2812 ft 92 kts 346°
2026-04-30 07:35 -33.98316 25.54735 3002 ft 95 kts 358°
2026-04-30 07:35 -33.97631 25.54711 3176 ft 100 kts 358°
2026-04-30 07:35 -33.96899 25.54662 3355 ft 112 kts 357°
2026-04-30 07:36 -33.96104 25.54621 3552 ft 119 kts 357°
2026-04-30 07:36 -33.95290 25.54593 3738 ft 112 kts 358°
2026-04-30 07:36 -33.94539 25.54581 3939 ft 108 kts 357°
2026-04-30 07:36 -33.93777 25.54578 4142 ft 110 kts 356°
2026-04-30 07:37 -33.93008 25.54587 4339 ft 111 kts 358°
2026-04-30 07:37 -33.92213 25.54589 4544 ft 117 kts 357°
2026-04-30 07:37 -33.91391 25.54588 4748 ft 120 kts 358°
2026-04-30 07:37 -33.90544 25.54602 4952 ft 124 kts 357°
2026-04-30 07:38 -33.89678 25.54619 5148 ft 122 kts 357°
2026-04-30 07:38 -33.88824 25.54637 5334 ft 121 kts 358°
2026-04-30 07:38 -33.87983 25.54671 5543 ft 122 kts 357°
2026-04-30 07:38 -33.87131 25.54707 5737 ft 122 kts 357°
2026-04-30 07:39 -33.86292 25.54755 5944 ft 121 kts 358°
2026-04-30 07:39 -33.85451 25.54813 6146 ft 121 kts 357°
2026-04-30 07:39 -33.84620 25.54881 6347 ft 119 kts 358°
2026-04-30 07:39 -33.83797 25.54956 6542 ft 118 kts 357°
2026-04-30 07:40 -33.82989 25.55034 6729 ft 114 kts 358°
2026-04-30 07:40 -33.82208 25.55122 6923 ft 112 kts 358°
2026-04-30 07:40 -33.81439 25.55214 7113 ft 112 kts 358°
2026-04-30 07:40 -33.80674 25.55314 7308 ft 109 kts 358°
2026-04-30 07:41 -33.79925 25.55420 7502 ft 107 kts 357°
2026-04-30 07:41 -33.79197 25.55528 7697 ft 107 kts 358°
2026-04-30 07:41 -33.78465 25.55643 7899 ft 105 kts 357°
2026-04-30 07:41 -33.77738 25.55764 8092 ft 105 kts 358°
2026-04-30 07:42 -33.77012 25.55930 8289 ft 111 kts 11°
2026-04-30 07:42 -33.76396 25.56559 8486 ft 122 kts 40°
2026-04-30 07:42 -33.75859 25.57344 8692 ft 121 kts 40°
2026-04-30 07:42 -33.75326 25.58135 8890 ft 121 kts 40°
2026-04-30 07:43 -33.74802 25.58919 9097 ft 120 kts 39°
2026-04-30 07:43 -33.74275 25.59704 9304 ft 122 kts 39°
2026-04-30 07:43 -33.73744 25.60500 9511 ft 122 kts 39°
2026-04-30 07:43 -33.73210 25.61297 9720 ft 122 kts 39°
2026-04-30 07:44 -33.72676 25.62096 9923 ft 123 kts 38°
2026-04-30 07:44 -33.72116 25.62925 9945 ft 136 kts 40°
2026-04-30 07:44 -33.71499 25.63851 9949 ft 146 kts 41°
2026-04-30 07:44 -33.70855 25.64821 9955 ft 151 kts 42°
2026-04-30 07:45 -33.70187 25.65824 9959 ft 155 kts 42°
2026-04-30 07:45 -33.69504 25.66842 9959 ft 157 kts 42°
2026-04-30 07:45 -33.68819 25.67864 9957 ft 157 kts 42°
2026-04-30 07:45 -33.68133 25.68888 9962 ft 157 kts 42°
2026-04-30 07:46 -33.67447 25.69909 9964 ft 157 kts 41°
2026-04-30 07:46 -33.66765 25.70926 9962 ft 156 kts 42°
2026-04-30 07:46 -33.66087 25.71938 9966 ft 155 kts 42°
2026-04-30 07:46 -33.65409 25.72947 9969 ft 154 kts 42°
2026-04-30 07:47 -33.64735 25.73948 9969 ft 154 kts 42°
2026-04-30 07:47 -33.64056 25.74957 9978 ft 157 kts 41°
2026-04-30 07:47 -33.63381 25.75960 9973 ft 156 kts 42°
2026-04-30 07:47 -33.62700 25.76973 9971 ft 155 kts 42°
2026-04-30 07:48 -33.62024 25.77978 9968 ft 154 kts 42°
2026-04-30 07:48 -33.61349 25.78982 9975 ft 154 kts 41°
2026-04-30 07:48 -33.60672 25.79986 9972 ft 155 kts 41°
2026-04-30 07:48 -33.59996 25.80990 9970 ft 155 kts 41°
2026-04-30 07:49 -33.59322 25.81992 9977 ft 155 kts 42°
2026-04-30 07:49 -33.58643 25.82999 9975 ft 155 kts 42°
2026-04-30 07:49 -33.57956 25.84017 9970 ft 157 kts 42°
2026-04-30 07:49 -33.57272 25.85033 9969 ft 156 kts 42°
2026-04-30 07:50 -33.56590 25.86045 9965 ft 156 kts 42°
2026-04-30 07:50 -33.55913 25.87049 9968 ft 155 kts 42°
2026-04-30 07:50 -33.55230 25.88059 9973 ft 156 kts 42°
2026-04-30 07:50 -33.54546 25.89073 9968 ft 156 kts 42°
2026-04-30 07:51 -33.53874 25.90068 9970 ft 155 kts 42°
2026-04-30 07:51 -33.53207 25.91062 9968 ft 150 kts 41°
2026-04-30 07:51 -33.52551 25.92035 9967 ft 150 kts 41°
2026-04-30 07:51 -33.51898 25.92999 9968 ft 148 kts 41°
2026-04-30 07:52 -33.51255 25.93952 9962 ft 146 kts 41°
2026-04-30 07:52 -33.50620 25.94892 9964 ft 144 kts 41°
2026-04-30 07:52 -33.49988 25.95827 9959 ft 144 kts 41°
2026-04-30 07:52 -33.49359 25.96757 9966 ft 144 kts 41°
2026-04-30 07:53 -33.48725 25.97691 9965 ft 145 kts 41°
2026-04-30 07:53 -33.48089 25.98628 9966 ft 145 kts 41°
2026-04-30 07:53 -33.47455 25.99564 9967 ft 145 kts 41°
2026-04-30 07:53 -33.46819 26.00502 9969 ft 145 kts 41°
2026-04-30 07:54 -33.46183 26.01443 9965 ft 145 kts 41°
2026-04-30 07:54 -33.45546 26.02383 9967 ft 146 kts 41°
2026-04-30 07:54 -33.44906 26.03329 9962 ft 146 kts 41°
2026-04-30 07:54 -33.44268 26.04272 9961 ft 145 kts 41°
2026-04-30 07:55 -33.43635 26.05206 9960 ft 144 kts 41°
2026-04-30 07:55 -33.43008 26.06131 9963 ft 143 kts 41°
2026-04-30 07:55 -33.42379 26.07058 9960 ft 144 kts 41°
2026-04-30 07:55 -33.41764 26.07966 9963 ft 141 kts 41°
2026-04-30 07:56 -33.41140 26.08882 9966 ft 142 kts 40°
2026-04-30 07:56 -33.40514 26.09802 9965 ft 143 kts 41°
2026-04-30 07:56 -33.39886 26.10730 9974 ft 144 kts 41°
2026-04-30 07:56 -33.39246 26.11671 9965 ft 146 kts 41°
2026-04-30 07:57 -33.38605 26.12616 9963 ft 146 kts 41°
2026-04-30 07:57 -33.37964 26.13557 9971 ft 147 kts 41°
2026-04-30 07:57 -33.37318 26.14510 9968 ft 147 kts 42°
2026-04-30 07:57 -33.36676 26.15457 9966 ft 146 kts 42°
2026-04-30 07:58 -33.36041 26.16392 9968 ft 145 kts 41°
2026-04-30 07:58 -33.35305 26.17146 9958 ft 133 kts 10°
2026-04-30 07:58 -33.34435 26.17458 9961 ft 131 kts
2026-04-30 07:58 -33.33566 26.17800 9967 ft 132 kts
2026-04-30 07:59 -33.32705 26.18153 9966 ft 132 kts
2026-04-30 07:59 -33.31836 26.18512 9962 ft 131 kts
2026-04-30 07:59 -33.30968 26.18869 9968 ft 133 kts
2026-04-30 08:00 -33.29209 26.19598 9966 ft 134 kts
2026-04-30 08:00 -33.28326 26.19963 9969 ft 134 kts
2026-04-30 08:00 -33.27444 26.20328 9965 ft 134 kts
2026-04-30 08:00 -33.26557 26.20694 9965 ft 137 kts
2026-04-30 08:01 -33.25652 26.21067 9965 ft 137 kts
2026-04-30 08:01 -33.24745 26.21443 9970 ft 139 kts
2026-04-30 08:01 -33.23831 26.21820 9969 ft 140 kts
2026-04-30 08:01 -33.22902 26.22202 9962 ft 142 kts 10°
2026-04-30 08:02 -33.21061 26.22966 9968 ft 141 kts 10°
2026-04-30 08:02 -33.20136 26.23349 9973 ft 140 kts 10°
2026-04-30 08:03 -33.18270 26.24118 9966 ft 141 kts 10°
2026-04-30 08:03 -33.16423 26.24882 9980 ft 141 kts 10°
2026-04-30 08:03 -33.15488 26.25267 9969 ft 142 kts 10°
2026-04-30 08:04 -33.14557 26.25649 9971 ft 142 kts 10°
2026-04-30 08:04 -33.13622 26.26037 9970 ft 142 kts 10°
2026-04-30 08:04 -33.12693 26.26421 9966 ft 141 kts 10°
2026-04-30 08:04 -33.11767 26.26802 9966 ft 141 kts 10°
2026-04-30 08:05 -33.10846 26.27182 9967 ft 140 kts 10°
2026-04-30 08:05 -33.09926 26.27561 9966 ft 140 kts 10°
2026-04-30 08:05 -33.09015 26.27937 9973 ft 140 kts 10°
2026-04-30 08:05 -33.08092 26.28317 9973 ft 140 kts 10°
2026-04-30 08:06 -33.07166 26.28698 9974 ft 141 kts 10°
2026-04-30 08:06 -33.06240 26.29080 9970 ft 140 kts 10°
2026-04-30 08:06 -33.05316 26.29461 9973 ft 140 kts 10°
2026-04-30 08:06 -33.04391 26.29841 9967 ft 141 kts 10°
2026-04-30 08:07 -33.03465 26.30222 9970 ft 141 kts 10°
2026-04-30 08:07 -33.02536 26.30604 9975 ft 142 kts 10°
2026-04-30 08:07 -33.01604 26.30987 9969 ft 142 kts 10°
2026-04-30 08:07 -33.00670 26.31371 9969 ft 142 kts 10°
2026-04-30 08:08 -32.99734 26.31756 9968 ft 142 kts 10°
2026-04-30 08:08 -32.98801 26.32141 9967 ft 142 kts 10°
2026-04-30 08:08 -32.97866 26.32525 9969 ft 142 kts 10°
2026-04-30 08:08 -32.96933 26.32908 9969 ft 142 kts 10°
2026-04-30 08:09 -32.95998 26.33292 9965 ft 142 kts 10°
2026-04-30 08:09 -32.95076 26.33671 9965 ft 142 kts 10°
2026-04-30 08:09 -32.94142 26.34055 9969 ft 142 kts 10°
2026-04-30 08:09 -32.93212 26.34437 9969 ft 141 kts
2026-04-30 08:10 -32.92279 26.34819 9968 ft 142 kts 10°
2026-04-30 08:10 -32.91341 26.35204 9966 ft 142 kts 10°
2026-04-30 08:10 -32.90407 26.35589 9959 ft 141 kts 10°
2026-04-30 08:10 -32.89480 26.35969 9962 ft 141 kts
2026-04-30 08:11 -32.88551 26.36349 9964 ft 141 kts
2026-04-30 08:11 -32.87621 26.36730 9959 ft 141 kts
2026-04-30 08:11 -32.86696 26.37109 9968 ft 141 kts
2026-04-30 08:11 -32.86630 26.37136 9968 ft 141 kts
2026-04-30 08:12 -32.85860 26.37448 9961 ft 140 kts
2026-04-30 08:12 -32.84937 26.37829 9965 ft 141 kts
2026-04-30 08:12 -32.84009 26.38210 9960 ft 141 kts
2026-04-30 08:13 -32.83081 26.38590 9964 ft 141 kts
2026-04-30 08:13 -32.82157 26.38970 9963 ft 140 kts
2026-04-30 08:13 -32.81235 26.39347 9961 ft 140 kts
2026-04-30 08:13 -32.80313 26.39724 9961 ft 140 kts
2026-04-30 08:14 -32.79391 26.40101 9961 ft 140 kts
2026-04-30 08:14 -32.78470 26.40478 9961 ft 140 kts
2026-04-30 08:14 -32.77549 26.40855 9964 ft 140 kts
2026-04-30 08:14 -32.76630 26.41231 9960 ft 140 kts
2026-04-30 08:15 -32.75709 26.41607 9961 ft 140 kts
2026-04-30 08:15 -32.74787 26.41984 9961 ft 140 kts
2026-04-30 08:15 -32.73864 26.42361 9958 ft 140 kts
2026-04-30 08:15 -32.72944 26.42737 9958 ft 140 kts
2026-04-30 08:16 -32.72026 26.43112 9957 ft 139 kts
2026-04-30 08:16 -32.71126 26.43480 9961 ft 139 kts
2026-04-30 08:16 -32.70202 26.43856 9964 ft 140 kts
2026-04-30 08:16 -32.69272 26.44235 9974 ft 143 kts
2026-04-30 08:17 -32.68323 26.44625 9968 ft 145 kts
2026-04-30 08:17 -32.67363 26.45023 9970 ft 147 kts
2026-04-30 08:17 -32.66402 26.45424 9968 ft 146 kts
2026-04-30 08:17 -32.65445 26.45819 9966 ft 145 kts
2026-04-30 08:18 -32.64492 26.46214 9962 ft 145 kts
2026-04-30 08:18 -32.63543 26.46607 9963 ft 144 kts
2026-04-30 08:18 -32.62598 26.46998 9965 ft 143 kts
2026-04-30 08:18 -32.61657 26.47386 9962 ft 143 kts
2026-04-30 08:19 -32.60729 26.47772 9977 ft 140 kts
2026-04-30 08:19 -32.59815 26.48147 9974 ft 142 kts
2026-04-30 08:19 -32.58878 26.48533 9973 ft 143 kts
2026-04-30 08:19 -32.57937 26.48922 9979 ft 144 kts
2026-04-30 08:20 -32.56995 26.49312 9972 ft 143 kts
2026-04-30 08:20 -32.56053 26.49701 9984 ft 143 kts
2026-04-30 08:20 -32.55114 26.50088 9979 ft 143 kts
2026-04-30 08:20 -32.54176 26.50476 9969 ft 142 kts
2026-04-30 08:21 -32.53250 26.50859 9968 ft 139 kts
2026-04-30 08:21 -32.52646 26.51107 9971 ft 138 kts
2026-04-30 08:21 -32.51737 26.51481 9973 ft 139 kts
2026-04-30 08:21 -32.50819 26.51860 9977 ft 140 kts
2026-04-30 08:22 -32.49890 26.52242 9969 ft 142 kts
2026-04-30 08:22 -32.48960 26.52625 9982 ft 142 kts
2026-04-30 08:22 -32.48024 26.53011 9976 ft 143 kts
2026-04-30 08:22 -32.47087 26.53398 9974 ft 143 kts
2026-04-30 08:23 -32.46147 26.53786 9975 ft 143 kts
2026-04-30 08:23 -32.45204 26.54174 9988 ft 145 kts
2026-04-30 08:23 -32.44243 26.54569 9983 ft 147 kts
2026-04-30 08:23 -32.43293 26.54963 9973 ft 141 kts
2026-04-30 08:24 -32.42386 26.55340 9982 ft 137 kts
2026-04-30 08:24 -32.41476 26.55709 9987 ft 140 kts
2026-04-30 08:24 -32.40547 26.56087 9993 ft 142 kts
2026-04-30 08:24 -32.39610 26.56473 9993 ft 143 kts
2026-04-30 08:25 -32.38673 26.56860 9991 ft 142 kts
2026-04-30 08:25 -32.37739 26.57245 9989 ft 142 kts
2026-04-30 08:25 -32.36819 26.57623 9992 ft 142 kts
2026-04-30 08:25 -32.35888 26.58006 9990 ft 141 kts
2026-04-30 08:26 -32.34958 26.58387 9996 ft 142 kts
2026-04-30 08:26 -32.34025 26.58771 9991 ft 142 kts
2026-04-30 08:26 -32.33097 26.59153 9988 ft 140 kts
2026-04-30 08:26 -32.32177 26.59530 9993 ft 140 kts
2026-04-30 08:27 -32.31251 26.59909 9995 ft 141 kts
2026-04-30 08:27 -32.30324 26.60291 9995 ft 140 kts
2026-04-30 08:27 -32.29416 26.60666 9986 ft 137 kts
2026-04-30 08:27 -32.28512 26.61034 9998 ft 138 kts
2026-04-30 08:28 -32.27604 26.61405 9994 ft 138 kts
2026-04-30 08:28 -32.26702 26.61775 9989 ft 138 kts
2026-04-30 08:28 -32.25802 26.62145 9998 ft 137 kts
2026-04-30 08:28 -32.24895 26.62517 9998 ft 139 kts
2026-04-30 08:29 -32.23976 26.62893 9994 ft 139 kts
2026-04-30 08:29 -32.23053 26.63273 9992 ft 140 kts
2026-04-30 08:29 -32.22163 26.63638 10000 ft 133 kts
2026-04-30 08:29 -32.21296 26.63992 10003 ft 134 kts
2026-04-30 08:30 -32.20422 26.64351 9994 ft 131 kts
2026-04-30 08:30 -32.19567 26.64703 10006 ft 131 kts
2026-04-30 08:30 -32.18687 26.65055 10002 ft 136 kts
2026-04-30 08:30 -32.17785 26.65424 10005 ft 138 kts
2026-04-30 08:31 -32.16873 26.65799 10003 ft 139 kts
2026-04-30 08:31 -32.15964 26.66173 10004 ft 138 kts
2026-04-30 08:31 -32.15056 26.66546 10004 ft 138 kts
2026-04-30 08:31 -32.14152 26.66916 10002 ft 137 kts
2026-04-30 08:32 -32.13251 26.67285 10009 ft 137 kts
2026-04-30 08:32 -32.12347 26.67655 10002 ft 138 kts
2026-04-30 08:32 -32.11444 26.68022 10001 ft 137 kts
2026-04-30 08:32 -32.10543 26.68390 10007 ft 137 kts
2026-04-30 08:33 -32.09651 26.68757 10005 ft 134 kts
2026-04-30 08:33 -32.08784 26.69109 9999 ft 134 kts
2026-04-30 08:33 -32.07894 26.69471 10011 ft 137 kts
2026-04-30 08:33 -32.06981 26.69843 10004 ft 140 kts
2026-04-30 08:34 -32.06058 26.70222 10005 ft 140 kts
2026-04-30 08:34 -32.05138 26.70598 10002 ft 139 kts
2026-04-30 08:34 -32.04236 26.70968 9998 ft 136 kts
2026-04-30 08:34 -32.03343 26.71332 10003 ft 136 kts
2026-04-30 08:35 -32.02448 26.71696 10001 ft 136 kts
2026-04-30 08:35 -32.01552 26.72060 10002 ft 137 kts
2026-04-30 08:35 -32.00642 26.72431 9998 ft 139 kts
2026-04-30 08:35 -31.99727 26.72805 9998 ft 139 kts
2026-04-30 08:36 -31.98816 26.73177 9994 ft 138 kts
2026-04-30 08:36 -31.97910 26.73547 10000 ft 138 kts
2026-04-30 08:36 -31.97004 26.73917 10001 ft 137 kts
2026-04-30 08:36 -31.96107 26.74282 9999 ft 136 kts
2026-04-30 08:37 -31.95209 26.74646 10000 ft 136 kts
2026-04-30 08:37 -31.94324 26.75006 10001 ft 136 kts
2026-04-30 08:37 -31.93427 26.75372 10001 ft 136 kts
2026-04-30 08:37 -31.92530 26.75737 10001 ft 137 kts
2026-04-30 08:38 -31.91629 26.76103 10002 ft 138 kts
2026-04-30 08:38 -31.90721 26.76472 10003 ft 138 kts
2026-04-30 08:38 -31.89811 26.76843 10003 ft 138 kts
2026-04-30 08:38 -31.88904 26.77212 9997 ft 138 kts
2026-04-30 08:39 -31.87994 26.77582 9998 ft 138 kts
2026-04-30 08:39 -31.87084 26.77952 9995 ft 138 kts
2026-04-30 08:39 -31.86184 26.78318 9998 ft 139 kts
2026-04-30 08:39 -31.85269 26.78689 9996 ft 139 kts
2026-04-30 08:40 -31.84352 26.79062 9996 ft 139 kts
2026-04-30 08:40 -31.83437 26.79433 9995 ft 139 kts
2026-04-30 08:40 -31.82513 26.79808 9998 ft 142 kts
2026-04-30 08:40 -31.81578 26.80189 9995 ft 141 kts
2026-04-30 08:41 -31.80648 26.80567 9989 ft 141 kts
2026-04-30 08:41 -31.79721 26.80943 9991 ft 140 kts
2026-04-30 08:41 -31.78814 26.81312 9996 ft 137 kts
2026-04-30 08:41 -31.77928 26.81671 9994 ft 136 kts
2026-04-30 08:42 -31.77024 26.82035 10002 ft 139 kts
2026-04-30 08:42 -31.76088 26.82410 10003 ft 144 kts
2026-04-30 08:42 -31.75146 26.82794 9997 ft 142 kts
2026-04-30 08:42 -31.74217 26.83172 9997 ft 140 kts
2026-04-30 08:43 -31.73299 26.83543 9994 ft 140 kts
2026-04-30 08:43 -31.72381 26.83913 9997 ft 138 kts
2026-04-30 08:43 -31.71480 26.84279 9995 ft 136 kts
2026-04-30 08:43 -31.70587 26.84641 9989 ft 134 kts
2026-04-30 08:44 -31.69712 26.84994 10004 ft 132 kts
2026-04-30 08:44 -31.68829 26.85347 10005 ft 136 kts
2026-04-30 08:44 -31.67933 26.85708 10008 ft 140 kts
2026-04-30 08:44 -31.67012 26.86084 10005 ft 139 kts
2026-04-30 08:45 -31.66099 26.86453 9996 ft 137 kts
2026-04-30 08:45 -31.65215 26.86809 10000 ft 133 kts
2026-04-30 08:45 -31.64335 26.87164 9998 ft 135 kts
2026-04-30 08:45 -31.63436 26.87523 10003 ft 137 kts
2026-04-30 08:46 -31.62530 26.87890 10000 ft 138 kts
2026-04-30 08:46 -31.61618 26.88260 10003 ft 138 kts
2026-04-30 08:46 -31.60712 26.88626 10003 ft 137 kts
2026-04-30 08:46 -31.59807 26.88990 10001 ft 138 kts
2026-04-30 08:47 -31.58897 26.89356 10005 ft 139 kts
2026-04-30 08:47 -31.57986 26.89724 10002 ft 138 kts
2026-04-30 08:47 -31.57082 26.90089 10002 ft 139 kts
2026-04-30 08:47 -31.56167 26.90457 10004 ft 141 kts
2026-04-30 08:48 -31.55232 26.90830 10009 ft 143 kts
2026-04-30 08:48 -31.54288 26.91212 10008 ft 145 kts
2026-04-30 08:48 -31.53335 26.91597 10006 ft 144 kts
2026-04-30 08:48 -31.52403 26.91975 10011 ft 140 kts
2026-04-30 08:49 -31.51477 26.92347 10030 ft 143 kts
2026-04-30 08:49 -31.50519 26.92728 10016 ft 147 kts
2026-04-30 08:49 -31.49553 26.93117 10017 ft 147 kts
2026-04-30 08:49 -31.48586 26.93508 10016 ft 147 kts
2026-04-30 08:50 -31.47632 26.93893 10015 ft 147 kts
2026-04-30 08:50 -31.46659 26.94284 10020 ft 148 kts
2026-04-30 08:50 -31.45689 26.94673 10018 ft 147 kts
2026-04-30 08:50 -31.44723 26.95062 10020 ft 147 kts
2026-04-30 08:51 -31.43760 26.95449 10017 ft 146 kts
2026-04-30 08:51 -31.42799 26.95834 10020 ft 146 kts
2026-04-30 08:51 -31.41837 26.96221 10022 ft 146 kts
2026-04-30 08:51 -31.40879 26.96607 10026 ft 146 kts
2026-04-30 08:52 -31.39934 26.96987 10020 ft 145 kts 10°
2026-04-30 08:52 -31.38983 26.97367 10024 ft 144 kts
2026-04-30 08:52 -31.38036 26.97746 10023 ft 144 kts
2026-04-30 08:52 -31.37089 26.98127 10025 ft 144 kts
2026-04-30 08:53 -31.36145 26.98507 10028 ft 144 kts
2026-04-30 08:53 -31.35193 26.98889 10025 ft 144 kts
2026-04-30 08:53 -31.34241 26.99272 10032 ft 145 kts
2026-04-30 08:53 -31.33282 26.99656 10036 ft 145 kts
2026-04-30 08:54 -31.32324 27.00040 10032 ft 145 kts
2026-04-30 08:54 -31.31367 27.00425 10036 ft 145 kts
2026-04-30 08:54 -31.30414 27.00808 10035 ft 144 kts
2026-04-30 08:54 -31.29469 27.01188 10044 ft 144 kts
2026-04-30 08:55 -31.28524 27.01567 10036 ft 144 kts
2026-04-30 08:55 -31.27575 27.01947 10041 ft 145 kts
2026-04-30 08:55 -31.26611 27.02331 10042 ft 147 kts 10°
2026-04-30 08:55 -31.25648 27.02721 10047 ft 144 kts
2026-04-30 08:56 -31.24709 27.03093 10048 ft 145 kts
2026-04-30 08:56 -31.23753 27.03477 10051 ft 146 kts
2026-04-30 08:56 -31.22794 27.03862 10048 ft 146 kts 10°
2026-04-30 08:56 -31.21836 27.04247 10054 ft 145 kts 10°
2026-04-30 08:57 -31.20881 27.04630 10049 ft 145 kts 10°
2026-04-30 08:57 -31.19923 27.05013 10056 ft 146 kts 10°
2026-04-30 08:57 -31.18960 27.05397 10052 ft 146 kts 10°
2026-04-30 08:57 -31.18001 27.05782 10055 ft 146 kts 10°
2026-04-30 08:58 -31.17039 27.06167 10055 ft 146 kts 11°
2026-04-30 08:58 -31.16077 27.06552 10062 ft 146 kts 11°
2026-04-30 08:58 -31.15113 27.06937 10060 ft 146 kts 10°
2026-04-30 08:58 -31.14144 27.07324 10059 ft 148 kts 11°
2026-04-30 08:59 -31.13164 27.07715 10065 ft 150 kts 11°
2026-04-30 08:59 -31.12175 27.08112 10070 ft 151 kts 11°
2026-04-30 08:59 -31.11181 27.08509 10070 ft 150 kts 11°
2026-04-30 08:59 -31.10192 27.08907 10061 ft 150 kts 12°
2026-04-30 09:00 -31.09225 27.09291 10079 ft 148 kts 11°
2026-04-30 09:00 -31.08246 27.09682 10070 ft 148 kts 12°
2026-04-30 09:00 -31.07282 27.10067 10083 ft 146 kts 12°
2026-04-30 09:00 -31.06316 27.10451 10077 ft 147 kts 11°
2026-04-30 09:01 -31.05352 27.10837 10072 ft 146 kts 12°
2026-04-30 09:01 -31.04384 27.11222 10083 ft 148 kts 12°
2026-04-30 09:01 -31.03401 27.11614 10082 ft 151 kts 12°
2026-04-30 09:01 -31.02409 27.12012 10084 ft 150 kts 12°
2026-04-30 09:02 -31.00425 27.12801 10084 ft 152 kts 12°
2026-04-30 09:02 -30.99424 27.13199 10090 ft 152 kts 12°
2026-04-30 09:02 -30.98416 27.13599 10096 ft 154 kts 13°
2026-04-30 09:03 -30.97405 27.14003 10087 ft 153 kts 13°
2026-04-30 09:03 -30.96403 27.14406 10090 ft 153 kts 12°
2026-04-30 09:03 -30.95399 27.14807 10087 ft 150 kts 12°
2026-04-30 09:03 -30.94420 27.15196 10100 ft 150 kts 12°
2026-04-30 09:04 -30.93422 27.15590 10103 ft 152 kts 13°
2026-04-30 09:04 -30.92422 27.15988 10103 ft 153 kts 13°
2026-04-30 09:04 -30.91416 27.16387 10098 ft 153 kts 13°
2026-04-30 09:04 -30.90405 27.16792 10096 ft 154 kts 13°
2026-04-30 09:05 -30.89388 27.17198 10100 ft 154 kts 13°
2026-04-30 09:05 -30.88369 27.17602 10094 ft 154 kts 13°
2026-04-30 09:05 -30.87369 27.17999 10103 ft 153 kts 13°
2026-04-30 09:05 -30.86356 27.18400 10101 ft 153 kts 14°
2026-04-30 09:06 -30.85352 27.18801 10103 ft 152 kts 14°
2026-04-30 09:06 -30.84357 27.19195 10102 ft 150 kts 13°
2026-04-30 09:06 -30.83368 27.19587 10100 ft 150 kts 13°
2026-04-30 09:06 -30.82373 27.19984 10105 ft 152 kts 14°
2026-04-30 09:07 -30.81377 27.20379 10100 ft 150 kts 13°
2026-04-30 09:07 -30.80393 27.20769 10108 ft 148 kts 13°
2026-04-30 09:07 -30.79413 27.21157 10106 ft 149 kts 13°
2026-04-30 09:07 -30.78435 27.21545 10094 ft 149 kts 13°
2026-04-30 09:08 -30.77477 27.21925 10103 ft 143 kts 13°
2026-04-30 09:08 -30.76526 27.22303 10109 ft 146 kts 13°
2026-04-30 09:08 -30.75551 27.22690 10106 ft 148 kts 14°
2026-04-30 09:08 -30.74571 27.23078 10109 ft 149 kts 13°
2026-04-30 09:09 -30.73585 27.23468 10103 ft 148 kts 14°
2026-04-30 09:09 -30.72611 27.23854 10109 ft 148 kts 14°
2026-04-30 09:09 -30.71642 27.24239 10109 ft 149 kts 14°
2026-04-30 09:09 -30.70660 27.24628 10107 ft 149 kts 14°
2026-04-30 09:10 -30.69682 27.25017 10110 ft 149 kts 13°
2026-04-30 09:10 -30.68704 27.25401 10113 ft 148 kts 13°
2026-04-30 09:10 -30.67721 27.25790 10110 ft 150 kts 14°
2026-04-30 09:10 -30.66731 27.26182 10116 ft 151 kts 13°
2026-04-30 09:11 -30.66075 27.26442 10122 ft 151 kts 14°
2026-04-30 09:11 -30.65078 27.26836 10110 ft 151 kts 13°
2026-04-30 09:11 -30.64101 27.27223 10110 ft 147 kts 13°
2026-04-30 09:11 -30.63135 27.27603 10114 ft 147 kts 13°
2026-04-30 09:12 -30.62166 27.27985 10118 ft 148 kts 14°
2026-04-30 09:12 -30.61189 27.28371 10118 ft 148 kts 14°
2026-04-30 09:12 -30.60219 27.28754 10113 ft 146 kts 14°
2026-04-30 09:12 -30.59261 27.29133 10115 ft 145 kts 14°
2026-04-30 09:13 -30.58302 27.29511 10117 ft 146 kts 14°
2026-04-30 09:13 -30.57343 27.29890 10117 ft 146 kts 14°
2026-04-30 09:13 -30.56378 27.30270 10119 ft 147 kts 14°
2026-04-30 09:13 -30.55411 27.30652 10115 ft 146 kts 14°
2026-04-30 09:14 -30.54456 27.31028 10118 ft 144 kts 14°
2026-04-30 09:14 -30.53507 27.31402 10115 ft 144 kts 14°
2026-04-30 09:14 -30.52559 27.31775 10115 ft 144 kts 14°
2026-04-30 09:14 -30.51610 27.32149 10114 ft 144 kts 14°
2026-04-30 09:15 -30.50663 27.32522 10118 ft 143 kts 14°
2026-04-30 09:15 -30.49720 27.32894 10121 ft 144 kts 14°
2026-04-30 09:15 -30.48769 27.33268 10120 ft 145 kts 14°
2026-04-30 09:15 -30.47814 27.33644 10124 ft 145 kts 14°
2026-04-30 09:16 -30.46863 27.34019 10164 ft 142 kts 14°
2026-04-30 09:16 -30.45946 27.34381 10233 ft 139 kts 13°
2026-04-30 09:16 -30.45021 27.34744 10233 ft 142 kts 13°
2026-04-30 09:16 -30.44099 27.35105 10235 ft 141 kts 13°
2026-04-30 09:17 -30.43168 27.35472 10237 ft 142 kts 13°
2026-04-30 09:17 -30.42228 27.35841 10234 ft 143 kts 13°
2026-04-30 09:17 -30.41288 27.36210 10238 ft 143 kts 13°
2026-04-30 09:17 -30.40343 27.36582 10238 ft 143 kts 13°
2026-04-30 09:18 -30.39397 27.36953 10238 ft 144 kts 13°
2026-04-30 09:18 -30.38452 27.37325 10240 ft 143 kts 13°
2026-04-30 09:18 -30.37506 27.37697 10237 ft 144 kts 13°
2026-04-30 09:18 -30.36559 27.38068 10241 ft 143 kts 12°
2026-04-30 09:19 -30.35613 27.38440 10234 ft 143 kts 13°
2026-04-30 09:19 -30.34676 27.38809 10236 ft 141 kts 13°
2026-04-30 09:19 -30.33745 27.39175 10233 ft 141 kts 12°
2026-04-30 09:19 -30.32813 27.39540 10239 ft 141 kts 12°
2026-04-30 09:20 -30.31880 27.39906 10242 ft 142 kts 12°
2026-04-30 09:20 -30.30940 27.40274 10238 ft 142 kts 12°
2026-04-30 09:20 -30.30001 27.40643 10236 ft 143 kts 12°
2026-04-30 09:20 -30.29062 27.41010 10241 ft 143 kts 12°
2026-04-30 09:21 -30.28111 27.41383 10241 ft 145 kts 12°
2026-04-30 09:21 -30.27155 27.41760 10244 ft 145 kts 13°
2026-04-30 09:21 -30.26191 27.42136 10244 ft 146 kts 12°
2026-04-30 09:21 -30.25231 27.42511 10241 ft 145 kts 12°
2026-04-30 09:22 -30.24285 27.42882 10240 ft 143 kts 13°
2026-04-30 09:22 -30.23349 27.43249 10239 ft 141 kts 13°
2026-04-30 09:22 -30.22436 27.43607 10238 ft 137 kts 12°
2026-04-30 09:22 -30.21537 27.43960 10246 ft 136 kts 12°
2026-04-30 09:23 -30.20636 27.44311 10241 ft 138 kts 12°
2026-04-30 09:23 -30.19725 27.44667 10248 ft 139 kts 12°
2026-04-30 09:23 -30.18802 27.45028 10248 ft 141 kts 12°
2026-04-30 09:23 -30.17873 27.45392 10253 ft 141 kts 12°
2026-04-30 09:24 -30.16939 27.45756 10251 ft 142 kts 12°
2026-04-30 09:24 -30.16001 27.46124 10251 ft 142 kts 12°
2026-04-30 09:24 -30.15075 27.46486 10254 ft 142 kts 12°
2026-04-30 09:24 -30.14137 27.46852 10253 ft 142 kts 12°
2026-04-30 09:25 -30.13197 27.47220 10253 ft 142 kts 12°
2026-04-30 09:25 -30.12258 27.47586 10255 ft 142 kts 12°
2026-04-30 09:25 -30.11318 27.47954 10253 ft 142 kts 12°
2026-04-30 09:25 -30.10381 27.48320 10252 ft 142 kts 12°
2026-04-30 09:26 -30.09441 27.48686 10260 ft 142 kts 12°
2026-04-30 09:26 -30.08504 27.49052 10257 ft 142 kts 12°
2026-04-30 09:26 -30.07567 27.49416 10257 ft 142 kts 12°
2026-04-30 09:26 -30.06627 27.49783 10260 ft 143 kts 12°
2026-04-30 09:27 -30.05687 27.50151 10255 ft 142 kts 12°
2026-04-30 09:27 -30.04755 27.50515 10252 ft 141 kts 12°
2026-04-30 09:27 -30.03826 27.50875 10263 ft 141 kts 12°
2026-04-30 09:27 -30.02901 27.51234 10260 ft 142 kts 12°
2026-04-30 09:28 -30.01966 27.51599 10258 ft 141 kts 12°
2026-04-30 09:28 -30.01039 27.51961 10260 ft 141 kts 12°
2026-04-30 09:28 -30.00114 27.52321 10260 ft 140 kts 12°
2026-04-30 09:28 -29.99189 27.52681 10265 ft 140 kts 12°
2026-04-30 09:29 -29.98261 27.53042 10254 ft 141 kts 12°
2026-04-30 09:29 -29.97336 27.53402 10260 ft 140 kts 12°
2026-04-30 09:29 -29.96424 27.53759 10258 ft 139 kts 12°
2026-04-30 09:29 -29.95505 27.54115 10261 ft 140 kts 12°
2026-04-30 09:30 -29.94581 27.54473 10262 ft 140 kts 12°
2026-04-30 09:30 -29.93654 27.54834 10252 ft 140 kts 12°
2026-04-30 09:30 -29.92726 27.55195 10248 ft 141 kts 13°
2026-04-30 09:30 -29.91808 27.55553 10252 ft 138 kts 12°
2026-04-30 09:31 -29.90899 27.55906 10254 ft 138 kts 12°
2026-04-30 09:31 -29.89991 27.56259 10255 ft 137 kts 12°
2026-04-30 09:31 -29.89088 27.56610 10253 ft 136 kts 12°
2026-04-30 09:31 -29.88190 27.56958 10254 ft 136 kts 13°
2026-04-30 09:32 -29.87299 27.57304 10257 ft 135 kts 12°
2026-04-30 09:32 -29.86408 27.57650 10259 ft 136 kts 13°
2026-04-30 09:32 -29.85520 27.57994 10252 ft 136 kts 13°
2026-04-30 09:32 -29.84626 27.58342 10253 ft 136 kts 13°
2026-04-30 09:33 -29.83735 27.58687 10253 ft 134 kts 12°
2026-04-30 09:33 -29.82858 27.59028 10256 ft 133 kts 12°
2026-04-30 09:33 -29.81976 27.59370 10255 ft 134 kts 12°
2026-04-30 09:33 -29.81102 27.59712 10253 ft 131 kts 12°
2026-04-30 09:34 -29.80251 27.60040 10269 ft 130 kts 12°
2026-04-30 09:34 -29.79396 27.60369 10267 ft 130 kts 12°
2026-04-30 09:34 -29.78535 27.60702 10267 ft 130 kts 12°
2026-04-30 09:34 -29.77677 27.61034 10267 ft 130 kts 12°
2026-04-30 09:35 -29.76815 27.61368 10256 ft 131 kts 13°
2026-04-30 09:35 -29.75963 27.61701 10264 ft 129 kts 12°
2026-04-30 09:35 -29.75106 27.62033 10269 ft 132 kts 12°
2026-04-30 09:35 -29.74235 27.62371 10267 ft 132 kts 13°
2026-04-30 09:36 -29.73364 27.62709 10267 ft 132 kts 12°
2026-04-30 09:36 -29.72497 27.63045 10267 ft 131 kts 12°
2026-04-30 09:36 -29.71636 27.63378 10269 ft 130 kts 12°
2026-04-30 09:36 -29.70774 27.63710 10269 ft 131 kts 12°
2026-04-30 09:37 -29.69916 27.64041 10262 ft 129 kts 11°
2026-04-30 09:37 -29.69073 27.64368 10270 ft 130 kts 12°
2026-04-30 09:37 -29.68218 27.64697 10267 ft 129 kts 12°
2026-04-30 09:37 -29.67362 27.65029 10271 ft 131 kts 12°
2026-04-30 09:38 -29.66512 27.65359 10267 ft 128 kts 11°
2026-04-30 09:38 -29.65668 27.65686 10269 ft 128 kts 11°
2026-04-30 09:38 -29.64817 27.66016 10266 ft 129 kts 11°
2026-04-30 09:38 -29.63971 27.66342 10274 ft 128 kts 11°
2026-04-30 09:39 -29.63127 27.66667 10268 ft 128 kts 10°
2026-04-30 09:39 -29.62286 27.66992 10260 ft 126 kts
2026-04-30 09:39 -29.61455 27.67313 10262 ft 126 kts
2026-04-30 09:39 -29.60629 27.67632 10253 ft 124 kts
2026-04-30 09:40 -29.59829 27.67940 10264 ft 119 kts
2026-04-30 09:40 -29.59028 27.68244 10273 ft 125 kts 10°
2026-04-30 09:40 -29.58182 27.68573 10279 ft 131 kts 11°
2026-04-30 09:40 -29.57300 27.68918 10263 ft 135 kts 11°
2026-04-30 09:41 -29.56432 27.69259 10263 ft 132 kts 10°
2026-04-30 09:41 -29.55562 27.69591 10272 ft 132 kts
2026-04-30 09:41 -29.54698 27.69921 10256 ft 129 kts
2026-04-30 09:41 -29.53843 27.70249 10263 ft 129 kts
2026-04-30 09:42 -29.52993 27.70578 10264 ft 128 kts
2026-04-30 09:42 -29.52149 27.70904 10264 ft 127 kts
2026-04-30 09:42 -29.51318 27.71224 10272 ft 124 kts
2026-04-30 09:42 -29.50496 27.71539 10264 ft 124 kts
2026-04-30 09:43 -29.49668 27.71856 10271 ft 126 kts
2026-04-30 09:43 -29.48830 27.72181 10261 ft 127 kts
2026-04-30 09:43 -29.47998 27.72503 10262 ft 125 kts
2026-04-30 09:43 -29.47192 27.72814 10272 ft 121 kts
2026-04-30 09:44 -29.46385 27.73120 10270 ft 123 kts
2026-04-30 09:44 -29.45573 27.73431 10266 ft 123 kts
2026-04-30 09:44 -29.44777 27.73737 10272 ft 122 kts
2026-04-30 09:44 -29.43975 27.74046 10270 ft 121 kts
2026-04-30 09:45 -29.43181 27.74351 10272 ft 120 kts
2026-04-30 09:45 -29.42403 27.74652 10256 ft 111 kts
2026-04-30 09:45 -29.41700 27.74942 10274 ft 109 kts
2026-04-30 09:45 -29.40956 27.75226 10275 ft 119 kts
2026-04-30 09:46 -29.40139 27.75539 10274 ft 126 kts
2026-04-30 09:46 -29.39300 27.75863 10269 ft 127 kts
2026-04-30 09:46 -29.38465 27.76185 10268 ft 126 kts
2026-04-30 09:46 -29.37637 27.76504 10270 ft 125 kts
2026-04-30 09:47 -29.36814 27.76819 10264 ft 124 kts
2026-04-30 09:47 -29.35994 27.77132 10256 ft 123 kts
2026-04-30 09:47 -29.35183 27.77440 10269 ft 124 kts
2026-04-30 09:47 -29.34367 27.77756 10274 ft 122 kts
2026-04-30 09:48 -29.33566 27.78065 10275 ft 124 kts
2026-04-30 09:48 -29.32755 27.78379 10271 ft 123 kts
2026-04-30 09:48 -29.31951 27.78688 10263 ft 121 kts
2026-04-30 09:48 -29.31172 27.78988 10264 ft 117 kts
2026-04-30 09:49 -29.30402 27.79282 10264 ft 116 kts
2026-04-30 09:49 -29.29645 27.79573 10255 ft 113 kts
2026-04-30 09:49 -29.28916 27.79853 10262 ft 110 kts 357°
2026-04-30 09:49 -29.28176 27.80132 10273 ft 116 kts
2026-04-30 09:50 -29.27388 27.80432 10272 ft 122 kts
2026-04-30 09:50 -29.26575 27.80745 10276 ft 124 kts
2026-04-30 09:50 -29.25750 27.81065 10284 ft 126 kts
2026-04-30 09:50 -29.24889 27.81392 10256 ft 131 kts
2026-04-30 09:51 -29.24036 27.81723 10260 ft 128 kts
2026-04-30 09:51 -29.23197 27.82046 10263 ft 127 kts
2026-04-30 09:51 -29.22359 27.82367 10264 ft 127 kts
2026-04-30 09:51 -29.21517 27.82689 10263 ft 128 kts
2026-04-30 09:52 -29.20686 27.83007 10260 ft 127 kts
2026-04-30 09:52 -29.19844 27.83329 10263 ft 128 kts
2026-04-30 09:52 -29.18989 27.83657 10263 ft 130 kts
2026-04-30 09:52 -29.18139 27.83983 10264 ft 128 kts
2026-04-30 09:53 -29.17291 27.84308 10258 ft 129 kts
2026-04-30 09:53 -29.16450 27.84632 10265 ft 126 kts
2026-04-30 09:53 -29.15621 27.84950 10263 ft 123 kts
2026-04-30 09:53 -29.14812 27.85260 10270 ft 123 kts
2026-04-30 09:54 -29.13994 27.85571 10272 ft 123 kts
2026-04-30 09:54 -29.13179 27.85882 10268 ft 123 kts
2026-04-30 09:54 -29.12360 27.86193 10267 ft 125 kts
2026-04-30 09:54 -29.11531 27.86511 10262 ft 126 kts
2026-04-30 09:55 -29.10716 27.86823 10267 ft 125 kts
2026-04-30 09:55 -29.09883 27.87141 10268 ft 127 kts
2026-04-30 09:55 -29.09045 27.87463 10270 ft 126 kts
2026-04-30 09:55 -29.08213 27.87782 10268 ft 125 kts
2026-04-30 09:56 -29.07384 27.88098 10267 ft 126 kts
2026-04-30 09:56 -29.06553 27.88415 10265 ft 126 kts
2026-04-30 09:56 -29.05722 27.88732 10265 ft 126 kts
2026-04-30 09:56 -29.04890 27.89050 10264 ft 126 kts
2026-04-30 09:57 -29.04059 27.89368 10262 ft 126 kts
2026-04-30 09:57 -29.03227 27.89686 10254 ft 126 kts
2026-04-30 09:57 -29.02402 27.90001 10261 ft 125 kts
2026-04-30 09:57 -29.01855 27.90209 10261 ft 125 kts
2026-04-30 09:58 -29.01025 27.90524 10265 ft 127 kts
2026-04-30 09:58 -29.00181 27.90846 10268 ft 128 kts
2026-04-30 09:58 -28.99060 27.91275 10262 ft 128 kts
2026-04-30 09:58 -28.98213 27.91599 10264 ft 128 kts
2026-04-30 09:59 -28.96795 27.92140 10266 ft 128 kts
2026-04-30 09:59 -28.95109 27.92783 10258 ft 127 kts
2026-04-30 10:00 -28.93431 27.93422 10265 ft 129 kts
2026-04-30 10:00 -28.92576 27.93747 10263 ft 130 kts
2026-04-30 10:01 -28.90868 27.94399 10260 ft 128 kts
2026-04-30 10:01 -28.90035 27.94716 10260 ft 128 kts
2026-04-30 10:01 -28.89194 27.95037 10262 ft 127 kts
2026-04-30 10:02 -28.87514 27.95675 10258 ft 127 kts
2026-04-30 10:02 -28.86672 27.95995 10258 ft 128 kts
2026-04-30 10:02 -28.85831 27.96315 10268 ft 128 kts
2026-04-30 10:02 -28.84985 27.96636 10265 ft 127 kts
2026-04-30 10:03 -28.84156 27.96951 10266 ft 124 kts
2026-04-30 10:03 -28.83352 27.97262 10288 ft 120 kts
2026-04-30 10:03 -28.82537 27.97568 10274 ft 125 kts
2026-04-30 10:03 -28.81702 27.97885 10272 ft 127 kts
2026-04-30 10:04 -28.80857 27.98206 10274 ft 128 kts
2026-04-30 10:04 -28.80006 27.98530 10275 ft 129 kts
2026-04-30 10:04 -28.79154 27.98855 10269 ft 129 kts
2026-04-30 10:04 -28.78303 27.99177 10273 ft 130 kts
2026-04-30 10:05 -28.77447 27.99504 10266 ft 129 kts
2026-04-30 10:05 -28.76601 27.99825 10268 ft 128 kts
2026-04-30 10:05 -28.75759 28.00146 10273 ft 127 kts
2026-04-30 10:05 -28.74920 28.00463 10271 ft 127 kts
2026-04-30 10:06 -28.74089 28.00777 10273 ft 128 kts
2026-04-30 10:06 -28.73240 28.01099 10277 ft 129 kts
2026-04-30 10:06 -28.72389 28.01423 10270 ft 129 kts
2026-04-30 10:06 -28.71533 28.01748 10273 ft 130 kts
2026-04-30 10:07 -28.70670 28.02075 10270 ft 131 kts
2026-04-30 10:07 -28.69805 28.02404 10267 ft 130 kts
2026-04-30 10:07 -28.68963 28.02724 10248 ft 122 kts
2026-04-30 10:07 -28.68194 28.03017 10275 ft 114 kts
2026-04-30 10:08 -28.67401 28.03310 10269 ft 126 kts
2026-04-30 10:08 -28.66552 28.03635 10271 ft 130 kts
2026-04-30 10:08 -28.65657 28.03970 10263 ft 138 kts
2026-04-30 10:08 -28.64763 28.04311 10252 ft 135 kts
2026-04-30 10:09 -28.63926 28.04639 10278 ft 120 kts
2026-04-30 10:09 -28.63150 28.04933 10274 ft 110 kts
2026-04-30 10:09 -28.62398 28.05212 10267 ft 117 kts
2026-04-30 10:09 -28.61609 28.05506 10263 ft 121 kts
2026-04-30 10:10 -28.60802 28.05812 10265 ft 123 kts
2026-04-30 10:10 -28.59994 28.06118 10257 ft 122 kts
2026-04-30 10:10 -28.59193 28.06421 10256 ft 124 kts
2026-04-30 10:10 -28.58370 28.06733 10259 ft 126 kts
2026-04-30 10:11 -28.57539 28.07045 10261 ft 126 kts
2026-04-30 10:11 -28.56692 28.07363 10262 ft 130 kts
2026-04-30 10:11 -28.55828 28.07692 10264 ft 133 kts
2026-04-30 10:11 -28.54935 28.08031 10256 ft 136 kts
2026-04-30 10:12 -28.54039 28.08371 10254 ft 135 kts
2026-04-30 10:12 -28.53160 28.08705 10254 ft 134 kts
2026-04-30 10:12 -28.52275 28.09039 10250 ft 134 kts
2026-04-30 10:12 -28.51387 28.09374 10252 ft 134 kts
2026-04-30 10:13 -28.50498 28.09710 10249 ft 134 kts
2026-04-30 10:13 -28.49612 28.10045 10250 ft 134 kts
2026-04-30 10:13 -28.48734 28.10376 10246 ft 134 kts
2026-04-30 10:13 -28.47844 28.10712 10244 ft 133 kts
2026-04-30 10:14 -28.46984 28.11037 10239 ft 131 kts
2026-04-30 10:14 -28.46121 28.11363 10245 ft 131 kts
2026-04-30 10:14 -28.44394 28.12015 10238 ft 130 kts
2026-04-30 10:15 -28.43536 28.12339 10241 ft 130 kts
2026-04-30 10:15 -28.42684 28.12660 10241 ft 129 kts
2026-04-30 10:15 -28.41834 28.12980 10233 ft 128 kts
2026-04-30 10:15 -28.40985 28.13300 10237 ft 129 kts
2026-04-30 10:16 -28.40117 28.13626 10242 ft 133 kts
2026-04-30 10:16 -28.39229 28.13960 10242 ft 135 kts
2026-04-30 10:16 -28.38333 28.14299 10241 ft 136 kts
2026-04-30 10:17 -28.36537 28.14977 10241 ft 138 kts
2026-04-30 10:17 -28.34719 28.15662 10240 ft 138 kts
2026-04-30 10:17 -28.33801 28.16007 10241 ft 139 kts
2026-04-30 10:18 -28.32879 28.16354 10241 ft 140 kts
2026-04-30 10:18 -28.31957 28.16701 10236 ft 139 kts
2026-04-30 10:18 -28.31043 28.17046 10228 ft 137 kts
2026-04-30 10:19 -28.29268 28.17714 10230 ft 133 kts
2026-04-30 10:19 -28.28393 28.18042 10233 ft 133 kts
2026-04-30 10:19 -28.27509 28.18373 10230 ft 135 kts
2026-04-30 10:19 -28.26617 28.18709 10231 ft 135 kts
2026-04-30 10:20 -28.25724 28.19046 10229 ft 135 kts
2026-04-30 10:20 -28.23953 28.19712 10226 ft 135 kts
2026-04-30 10:20 -28.23063 28.20046 10221 ft 135 kts
2026-04-30 10:21 -28.22176 28.20380 10223 ft 134 kts
2026-04-30 10:21 -28.21293 28.20712 10225 ft 134 kts
2026-04-30 10:21 -28.20407 28.21044 10225 ft 135 kts
2026-04-30 10:21 -28.19519 28.21378 10223 ft 133 kts
2026-04-30 10:22 -28.18648 28.21706 10222 ft 131 kts
2026-04-30 10:22 -28.17782 28.22030 10221 ft 131 kts
2026-04-30 10:22 -28.16914 28.22354 10223 ft 131 kts
2026-04-30 10:22 -28.16038 28.22681 10224 ft 134 kts
2026-04-30 10:23 -28.15149 28.23015 10226 ft 135 kts
2026-04-30 10:23 -28.14253 28.23351 10219 ft 136 kts
2026-04-30 10:23 -28.13357 28.23687 10224 ft 136 kts
2026-04-30 10:23 -28.12472 28.24019 10220 ft 136 kts
2026-04-30 10:24 -28.11578 28.24355 10224 ft 135 kts
2026-04-30 10:24 -28.10685 28.24689 10222 ft 136 kts
2026-04-30 10:24 -28.09788 28.25025 10217 ft 136 kts
2026-04-30 10:24 -28.08892 28.25361 10216 ft 135 kts
2026-04-30 10:25 -28.08002 28.25696 10214 ft 135 kts
2026-04-30 10:25 -28.07112 28.26029 10214 ft 135 kts
2026-04-30 10:25 -28.06217 28.26364 10217 ft 136 kts
2026-04-30 10:25 -28.05313 28.26702 10219 ft 137 kts
2026-04-30 10:26 -28.04405 28.27043 10216 ft 137 kts
2026-04-30 10:26 -28.03501 28.27382 10218 ft 137 kts
2026-04-30 10:26 -28.02595 28.27721 10215 ft 137 kts
2026-04-30 10:26 -28.01688 28.28060 10215 ft 137 kts
2026-04-30 10:27 -28.00777 28.28401 10218 ft 138 kts
2026-04-30 10:27 -27.99862 28.28743 10215 ft 139 kts
2026-04-30 10:27 -27.98946 28.29087 10212 ft 139 kts
2026-04-30 10:27 -27.98027 28.29403 10212 ft 138 kts
2026-04-30 10:28 -27.97111 28.29715 10213 ft 137 kts
2026-04-30 10:28 -27.96200 28.30025 10210 ft 136 kts
2026-04-30 10:28 -27.95292 28.30332 10214 ft 136 kts
2026-04-30 10:28 -27.94381 28.30640 10213 ft 137 kts
2026-04-30 10:29 -27.93469 28.30948 10211 ft 136 kts
2026-04-30 10:29 -27.92569 28.31251 10212 ft 137 kts
2026-04-30 10:29 -27.91652 28.31560 10217 ft 137 kts
2026-04-30 10:29 -27.90731 28.31871 10212 ft 138 kts
2026-04-30 10:30 -27.89810 28.32181 10213 ft 139 kts
2026-04-30 10:30 -27.88886 28.32492 10215 ft 138 kts
2026-04-30 10:30 -27.87963 28.32804 10215 ft 139 kts
2026-04-30 10:30 -27.87037 28.33115 10214 ft 139 kts
2026-04-30 10:31 -27.86115 28.33426 10216 ft 138 kts
2026-04-30 10:31 -27.85189 28.33738 10218 ft 139 kts
2026-04-30 10:31 -27.84263 28.34049 10210 ft 139 kts
2026-04-30 10:31 -27.83348 28.34357 10211 ft 139 kts
2026-04-30 10:32 -27.82424 28.34669 10211 ft 138 kts
2026-04-30 10:32 -27.81507 28.34978 10217 ft 138 kts
2026-04-30 10:32 -27.80581 28.35289 10219 ft 140 kts
2026-04-30 10:32 -27.79645 28.35603 10216 ft 141 kts
2026-04-30 10:33 -27.78706 28.35920 10217 ft 141 kts
2026-04-30 10:33 -27.77767 28.36236 10220 ft 141 kts
2026-04-30 10:33 -27.76825 28.36552 10217 ft 142 kts
2026-04-30 10:33 -27.75878 28.36871 10216 ft 142 kts
2026-04-30 10:34 -27.74936 28.37188 10216 ft 141 kts
2026-04-30 10:34 -27.73996 28.37504 10215 ft 141 kts
2026-04-30 10:34 -27.73062 28.37817 10215 ft 140 kts
2026-04-30 10:34 -27.72132 28.38130 10210 ft 139 kts
2026-04-30 10:35 -27.71207 28.38440 10211 ft 139 kts
2026-04-30 10:35 -27.70280 28.38751 10213 ft 139 kts
2026-04-30 10:35 -27.69352 28.39063 10216 ft 139 kts
2026-04-30 10:35 -27.68434 28.39370 10218 ft 140 kts
2026-04-30 10:36 -27.67497 28.39686 10218 ft 141 kts
2026-04-30 10:36 -27.66555 28.40002 10213 ft 142 kts
2026-04-30 10:36 -27.65609 28.40319 10213 ft 142 kts
2026-04-30 10:36 -27.64659 28.40638 10216 ft 142 kts
2026-04-30 10:37 -27.63715 28.40955 10219 ft 141 kts
2026-04-30 10:37 -27.62777 28.41270 10217 ft 140 kts
2026-04-30 10:37 -27.61841 28.41583 10214 ft 140 kts
2026-04-30 10:37 -27.60908 28.41896 10213 ft 140 kts
2026-04-30 10:38 -27.59972 28.42209 10214 ft 140 kts
2026-04-30 10:38 -27.59045 28.42519 10210 ft 141 kts
2026-04-30 10:38 -27.58107 28.42834 10214 ft 140 kts
2026-04-30 10:38 -27.57167 28.43149 10212 ft 141 kts
2026-04-30 10:39 -27.56228 28.43464 10213 ft 140 kts
2026-04-30 10:39 -27.55297 28.43776 10217 ft 139 kts
2026-04-30 10:39 -27.54366 28.44087 10212 ft 139 kts
2026-04-30 10:39 -27.53438 28.44398 10212 ft 139 kts
2026-04-30 10:40 -27.52509 28.44708 10218 ft 139 kts
2026-04-30 10:40 -27.51579 28.45020 10212 ft 139 kts
2026-04-30 10:40 -27.50649 28.45331 10213 ft 139 kts
2026-04-30 10:40 -27.49718 28.45642 10211 ft 140 kts
2026-04-30 10:41 -27.48783 28.45954 10211 ft 141 kts
2026-04-30 10:41 -27.47839 28.46270 10211 ft 142 kts
2026-04-30 10:41 -27.46923 28.46712 10212 ft 146 kts 14°
2026-04-30 10:41 -27.46001 28.47195 10214 ft 146 kts 14°
2026-04-30 10:42 -27.45078 28.47679 10214 ft 146 kts 14°
2026-04-30 10:42 -27.44154 28.48162 10214 ft 146 kts 14°
2026-04-30 10:42 -27.43234 28.48644 10212 ft 146 kts 14°
2026-04-30 10:42 -27.42315 28.49125 10215 ft 146 kts 14°
2026-04-30 10:43 -27.41393 28.49606 10210 ft 146 kts 14°
2026-04-30 10:43 -27.40471 28.50089 10215 ft 146 kts 14°
2026-04-30 10:43 -27.39549 28.50570 10210 ft 146 kts 14°
2026-04-30 10:43 -27.38630 28.51051 10211 ft 146 kts 14°
2026-04-30 10:44 -27.37709 28.51531 10210 ft 146 kts 14°
2026-04-30 10:44 -27.36789 28.52012 10207 ft 146 kts 14°
2026-04-30 10:44 -27.36176 28.52332 10212 ft 147 kts 14°
2026-04-30 10:44 -27.35251 28.52815 10213 ft 147 kts 15°
2026-04-30 10:45 -27.34324 28.53299 10211 ft 147 kts 14°
2026-04-30 10:45 -27.33395 28.53784 10215 ft 147 kts 14°
2026-04-30 10:45 -27.32462 28.54270 10213 ft 148 kts 14°
2026-04-30 10:45 -27.31524 28.54760 10207 ft 149 kts 14°
2026-04-30 10:46 -27.30583 28.55251 10210 ft 149 kts 15°
2026-04-30 10:46 -27.29645 28.55741 10211 ft 148 kts 15°
2026-04-30 10:46 -27.28709 28.56229 10207 ft 148 kts 14°
2026-04-30 10:46 -27.27772 28.56717 10208 ft 148 kts 15°
2026-04-30 10:47 -27.26835 28.57206 10212 ft 148 kts 15°
2026-04-30 10:47 -27.25896 28.57695 10202 ft 149 kts 15°
2026-04-30 10:47 -27.24969 28.58179 10210 ft 148 kts 15°
2026-04-30 10:47 -27.24032 28.58666 10213 ft 148 kts 14°
2026-04-30 10:48 -27.23097 28.59152 10211 ft 148 kts 15°
2026-04-30 10:48 -27.22162 28.59640 10213 ft 148 kts 15°
2026-04-30 10:48 -27.21229 28.60126 10209 ft 148 kts 15°
2026-04-30 10:48 -27.20294 28.60612 10207 ft 148 kts 15°
2026-04-30 10:49 -27.19358 28.61099 10209 ft 148 kts 15°
2026-04-30 10:49 -27.18418 28.61589 10210 ft 149 kts 15°
2026-04-30 10:49 -27.17477 28.62078 10208 ft 149 kts 15°
2026-04-30 10:49 -27.16531 28.62570 10203 ft 150 kts 15°
2026-04-30 10:50 -27.15583 28.63063 10209 ft 150 kts 15°
2026-04-30 10:50 -27.14635 28.63556 10211 ft 150 kts 15°
2026-04-30 10:50 -27.13688 28.64049 10211 ft 150 kts 15°
2026-04-30 10:50 -27.12749 28.64537 10203 ft 150 kts 15°
2026-04-30 10:51 -27.11802 28.65030 10203 ft 150 kts 15°
2026-04-30 10:51 -27.10855 28.65522 10207 ft 149 kts 15°
2026-04-30 10:51 -27.09912 28.66011 10200 ft 149 kts 14°
2026-04-30 10:51 -27.08969 28.66501 10209 ft 149 kts 15°
2026-04-30 10:52 -27.08027 28.66990 10211 ft 149 kts 15°
2026-04-30 10:52 -27.07086 28.67479 10208 ft 149 kts 14°
2026-04-30 10:52 -27.06147 28.67966 10211 ft 149 kts 14°
2026-04-30 10:52 -27.05203 28.68455 10206 ft 150 kts 15°
2026-04-30 10:53 -27.04260 28.68945 10209 ft 150 kts 15°
2026-04-30 10:53 -27.03308 28.69439 10208 ft 151 kts 15°
2026-04-30 10:53 -27.02354 28.69933 10207 ft 151 kts 14°
2026-04-30 10:53 -27.01399 28.70429 10210 ft 151 kts 15°
2026-04-30 10:54 -27.00449 28.70923 10211 ft 150 kts 15°
2026-04-30 10:54 -26.99485 28.71298 10213 ft 142 kts 359°
2026-04-30 10:54 -26.98530 28.71275 10205 ft 134 kts 339°
2026-04-30 10:54 -26.97692 28.70914 10208 ft 126 kts 321°
2026-04-30 10:55 -26.97032 28.70299 10208 ft 121 kts 305°
2026-04-30 10:55 -26.96533 28.69545 10211 ft 120 kts 301°
2026-04-30 10:55 -26.96043 28.68792 10211 ft 122 kts 301°
2026-04-30 10:55 -26.95540 28.68014 10214 ft 121 kts 301°
2026-04-30 10:56 -26.95050 28.67262 10215 ft 122 kts 301°
2026-04-30 10:56 -26.94554 28.66496 10211 ft 121 kts 301°
2026-04-30 10:56 -26.94059 28.65732 10210 ft 121 kts 301°
2026-04-30 10:56 -26.93560 28.64963 10213 ft 122 kts 301°
2026-04-30 10:57 -26.93062 28.64195 10212 ft 122 kts 301°
2026-04-30 10:57 -26.92560 28.63422 10217 ft 123 kts 301°
2026-04-30 10:57 -26.92054 28.62643 10213 ft 124 kts 301°
2026-04-30 10:57 -26.91546 28.61861 10213 ft 124 kts 301°
2026-04-30 10:58 -26.91038 28.61079 10212 ft 124 kts 300°
2026-04-30 10:58 -26.90536 28.60306 10214 ft 122 kts 300°
2026-04-30 10:58 -26.90036 28.59538 10215 ft 122 kts 300°
2026-04-30 10:58 -26.89540 28.58774 10212 ft 121 kts 300°
2026-04-30 10:59 -26.89045 28.58010 10218 ft 121 kts 300°
2026-04-30 10:59 -26.88546 28.57242 10223 ft 123 kts 300°
2026-04-30 10:59 -26.88041 28.56465 10221 ft 124 kts 300°
2026-04-30 10:59 -26.87532 28.55685 10220 ft 123 kts 300°
2026-04-30 11:00 -26.87025 28.54905 10219 ft 125 kts 300°
2026-04-30 11:00 -26.86517 28.54123 10223 ft 126 kts 300°
2026-04-30 11:00 -26.85996 28.53325 10221 ft 127 kts 301°
2026-04-30 11:00 -26.85473 28.52531 10147 ft 126 kts 301°
2026-04-30 11:01 -26.84964 28.51747 10078 ft 124 kts 300°
2026-04-30 11:01 -26.84459 28.50969 10003 ft 123 kts 300°
2026-04-30 11:01 -26.83953 28.50194 9915 ft 123 kts 301°
2026-04-30 11:01 -26.83453 28.49426 9834 ft 122 kts 301°
2026-04-30 11:02 -26.82952 28.48658 9758 ft 122 kts 301°
2026-04-30 11:02 -26.82454 28.47892 9684 ft 122 kts 301°
2026-04-30 11:02 -26.81953 28.47123 9603 ft 123 kts 301°
2026-04-30 11:02 -26.81450 28.46351 9526 ft 123 kts 301°
2026-04-30 11:03 -26.80946 28.45577 9453 ft 123 kts 301°
2026-04-30 11:03 -26.80441 28.44805 9377 ft 123 kts 302°
2026-04-30 11:03 -26.79937 28.44032 9299 ft 123 kts 301°
2026-04-30 11:04 -26.78929 28.42486 9147 ft 123 kts 302°
2026-04-30 11:04 -26.78423 28.41710 9076 ft 124 kts 302°
2026-04-30 11:04 -26.77916 28.40931 8997 ft 124 kts 302°
2026-04-30 11:04 -26.77406 28.40151 8922 ft 124 kts 302°
2026-04-30 11:05 -26.76894 28.39368 8845 ft 124 kts 302°
2026-04-30 11:05 -26.76384 28.38586 8771 ft 125 kts 302°
2026-04-30 11:05 -26.75872 28.37801 8703 ft 125 kts 302°
2026-04-30 11:05 -26.75366 28.37027 8625 ft 125 kts 302°
2026-04-30 11:06 -26.74846 28.36231 8556 ft 125 kts 303°
2026-04-30 11:06 -26.74337 28.35452 8481 ft 126 kts 303°
2026-04-30 11:06 -26.73819 28.34659 8410 ft 127 kts 303°
2026-04-30 11:06 -26.73297 28.33860 8335 ft 128 kts 303°
2026-04-30 11:07 -26.72772 28.33057 8259 ft 128 kts 303°
2026-04-30 11:07 -26.72247 28.32253 8188 ft 128 kts 303°
2026-04-30 11:07 -26.71719 28.31446 8115 ft 128 kts 303°
2026-04-30 11:07 -26.71193 28.30642 8048 ft 128 kts 303°
2026-04-30 11:08 -26.70657 28.29845 7977 ft 128 kts 306°
2026-04-30 11:08 -26.70092 28.29076 7912 ft 128 kts 307°
2026-04-30 11:08 -26.69533 28.28310 7836 ft 126 kts 307°
2026-04-30 11:08 -26.68987 28.27548 7769 ft 125 kts 307°
2026-04-30 11:09 -26.68443 28.26786 7699 ft 125 kts 307°
2026-04-30 11:09 -26.67903 28.26024 7628 ft 125 kts 307°
2026-04-30 11:09 -26.67363 28.25258 7567 ft 127 kts 307°
2026-04-30 11:09 -26.66812 28.24473 7499 ft 130 kts 307°
2026-04-30 11:10 -26.66258 28.23679 7431 ft 128 kts 307°
2026-04-30 11:10 -26.65711 28.22894 7357 ft 127 kts 307°
2026-04-30 11:10 -26.65181 28.22127 7298 ft 124 kts 307°
2026-04-30 11:10 -26.64656 28.21360 7211 ft 121 kts 307°
2026-04-30 11:11 -26.64154 28.20617 7148 ft 121 kts 307°
2026-04-30 11:11 -26.63648 28.19859 7045 ft 124 kts 308°
2026-04-30 11:11 -26.63128 28.19064 6976 ft 122 kts 308°
2026-04-30 11:11 -26.62644 28.18294 6960 ft 118 kts 306°
2026-04-30 11:12 -26.62172 28.17586 6967 ft 110 kts 307°
2026-04-30 11:12 -26.61719 28.16916 6969 ft 108 kts 306°
2026-04-30 11:12 -26.61272 28.16259 6974 ft 106 kts 307°
2026-04-30 11:12 -26.60829 28.15597 6978 ft 108 kts 307°
2026-04-30 11:13 -26.60325 28.14985 6974 ft 108 kts 326°
2026-04-30 11:13 -26.59631 28.14660 6984 ft 108 kts 338°
2026-04-30 11:13 -26.58913 28.14364 6982 ft 113 kts 338°
2026-04-30 11:13 -26.58182 28.14076 6978 ft 110 kts 339°
2026-04-30 11:14 -26.57467 28.13807 6972 ft 106 kts 338°
2026-04-30 11:14 -26.56769 28.13550 6986 ft 106 kts 339°
2026-04-30 11:14 -26.56044 28.13282 6977 ft 112 kts 339°
2026-04-30 11:14 -26.55320 28.13012 6978 ft 107 kts 339°
2026-04-30 11:15 -26.54601 28.12850 6967 ft 109 kts
2026-04-30 11:15 -26.53858 28.13099 6963 ft 114 kts 13°
2026-04-30 11:15 -26.53103 28.13364 6986 ft 115 kts 12°
2026-04-30 11:15 -26.52320 28.13626 6965 ft 118 kts 12°
2026-04-30 11:16 -26.51547 28.13870 6979 ft 117 kts 10°
2026-04-30 11:16 -26.50741 28.14121 6975 ft 124 kts 11°
2026-04-30 11:16 -26.49914 28.14383 6977 ft 123 kts 11°
2026-04-30 11:16 -26.49076 28.14651 6980 ft 128 kts 11°
2026-04-30 11:17 -26.48211 28.14923 6975 ft 129 kts 12°
2026-04-30 11:17 -26.47344 28.15193 6976 ft 129 kts 12°
2026-04-30 11:17 -26.46497 28.15464 6970 ft 124 kts 13°
2026-04-30 11:17 -26.45681 28.15719 6976 ft 122 kts 12°
2026-04-30 11:18 -26.44865 28.15977 6968 ft 122 kts 11°
2026-04-30 11:18 -26.43288 28.16472 6960 ft 120 kts 10°
2026-04-30 11:18 -26.42476 28.16723 6959 ft 122 kts 11°
2026-04-30 11:19 -26.41668 28.16976 6957 ft 119 kts 12°
2026-04-30 11:19 -26.40884 28.17224 6958 ft 116 kts 12°
2026-04-30 11:19 -26.40114 28.17461 6959 ft 115 kts 11°
2026-04-30 11:19 -26.39349 28.17702 6958 ft 114 kts 11°
2026-04-30 11:20 -26.38590 28.17940 6962 ft 114 kts 11°
2026-04-30 11:20 -26.37818 28.18180 6966 ft 118 kts 11°
2026-04-30 11:20 -26.37019 28.18430 6968 ft 120 kts 11°
2026-04-30 11:20 -26.36210 28.18683 6972 ft 124 kts 11°
2026-04-30 11:21 -26.35379 28.18946 6972 ft 124 kts 12°
2026-04-30 11:21 -26.34547 28.19208 6974 ft 124 kts 11°
2026-04-30 11:21 -26.33725 28.19472 6967 ft 122 kts 12°
2026-04-30 11:21 -26.32913 28.19714 6967 ft 121 kts 10°
2026-04-30 11:22 -26.32102 28.19953 6969 ft 120 kts 11°
2026-04-30 11:22 -26.31301 28.20197 6967 ft 119 kts 10°
2026-04-30 11:22 -26.30504 28.20449 6973 ft 120 kts 12°
2026-04-30 11:22 -26.29697 28.20699 6964 ft 118 kts 12°
2026-04-30 11:23 -26.28911 28.20945 6964 ft 117 kts 11°
2026-04-30 11:23 -26.28132 28.21185 6968 ft 117 kts 11°
2026-04-30 11:23 -26.26575 28.21661 6963 ft 115 kts 11°
2026-04-30 11:24 -26.26317 28.21747 6962 ft 114 kts 12°
2026-04-30 11:24 -26.25958 28.21864 6924 ft 120 kts 12°
2026-04-30 11:24 -26.25123 28.22126 6801 ft 128 kts 11°
2026-04-30 11:25 -26.23403 28.22659 6661 ft 122 kts 11°
2026-04-30 11:25 -26.22603 28.22908 6670 ft 118 kts 12°
2026-04-30 11:25 -26.21056 28.23393 6518 ft 113 kts 11°
2026-04-30 11:26 -26.19624 28.23836 6225 ft 105 kts 11°
2026-04-30 11:26 -26.18926 28.24053 6070 ft 102 kts 10°
2026-04-30 11:26 -26.18271 28.24256 5927 ft 93 kts 10°
2026-04-30 11:27 -26.17680 28.24434 5810 ft 85 kts
2026-04-30 11:27 -26.17107 28.24614 5683 ft 84 kts
2026-04-30 11:27 -26.16582 28.24782 5620 ft 74 kts
2026-04-30 11:27 -26.16105 28.24928 5580 ft 68 kts
2026-04-30 11:28 -26.15400 28.25146 5567 ft 32 kts 18°
2026-04-30 11:28 -26.15251 28.25193 5567 ft 34 kts 16°
2026-04-30 11:28 -26.14994 28.25271 5565 ft 24 kts 18°
2026-04-30 11:29 -26.14814 28.25328 5563 ft 29 kts 16°
2026-04-30 11:29 -26.14675 28.25391 5561 ft 15 kts 76°
2026-04-30 11:29 -26.14769 28.25588 5560 ft 15 kts 76°
2026-04-30 11:30 -26.14702 28.25705 5560 ft 0 kts 57°
2026-04-30 11:30 -26.14660 28.25760 5560 ft 15 kts 39°
2026-04-30 11:30 -26.14571 28.25830 5560 ft 14 kts 33°
2026-04-30 11:31 -26.14475 28.25905 5560 ft 17 kts 33°
2026-04-30 11:31 -26.14425 28.25944 5560 ft 0 kts 32°
2026-04-30 11:31 -26.14424 28.25945 5560 ft 4 kts 31°
2026-04-30 11:31 -26.14360 28.25995 5560 ft 13 kts 33°
2026-04-30 11:32 -26.14294 28.26047 5560 ft 11 kts 36°
2026-04-30 11:32 -26.14290 28.26126 5560 ft 9 kts 119°
2026-04-30 11:32 -26.14312 28.26159 5560 ft 5 kts 114°
2026-04-30 11:33 -26.14279 28.26194 5560 ft 0 kts 31°